星链-37211(STARLINK-37211)

导读

STARLINK-37211(NORAD编号68620)是美国太空探索技术公司(SpaceX)研发运营的Starlink v1.5批次低轨宽带互联网卫星,隶属于星链(Starlink)巨型星座项目,目前仍在轨正常工作。 该卫星运行在近地轨道,轨道倾角53.218°,近地点高度约538.84千米、远地点约540.66千米,轨道周期约95.44分钟,每日绕地球运行约15圈。作为星链星座的组成部分,它为全球范围提供低延迟宽带互联网接入服务,是SpaceX搭建全球卫星互联网组网的重要节点。

Basic Information
目录编号:
68620
目录名称:
STARLINK-37211
国际标识:
2026-073U
轨道中心:
EARTH
卫星名称:
星链-37211
卫星全名:
星链-37211(STARLINK-37211)
卫星状态:
在轨 (已飞行152 天)
发射日期:
2026-04-05 UTC
国别 :
美国 (US)
星等 :
--
Orbit Information
数据来源 国际轨道数据
星历时间: 2026-09-03T20:37:06+0800
19小时前
查看轨道信息
半长轴: 6843.713km
偏心率: 0.0002212
轨道倾角: 97.286°
近地点辐角 104.957°
升交点赤经 84.849°
平近点角 255.192°
近地点: 464.062km
远地点: 467.09km
周期: 93.907分钟
每日圈数: 15.334341
Detailed Information
固有亮度:
5
最大亮度:
2.5
卫星平台:
Starlink V1.0
覆盖范围:
全球
运营商:
太空探索技术公司
运营商所在国:
美国
制造商(研发单位):
太空探索技术公司
制造商所在国:
美国
使用方式:
暂无
Satellite Introduction
Starlink 计划是 SpaceX 推出的全球卫星互联网项目,通过发射低轨道卫星,为全球尤其是偏远地区提供高速、低延迟的互联网服务。自 2019 年起,Starlink 已部署数千颗卫星,旨在缩小全球数字鸿沟,推动互联网普及。该项目还为军事、航空等行业提供通信支持,带来广泛经济效益。
2D Orbit Map
3D Orbit Map
Orbit Altitude Analysis Chart
Orbit Inclination Analysis Chart
Orbit Comprehensive Analysis Chart
View Comprehensive Chart
Conjunction Data List
Event ID Objects TCA Miss Dist (km) Collision Risk Probability Collision Risk Index (CRI) Action
CDM_260830-092906-488006-862021
OBJECT E (64880)
2026-08-30T
09:29:26+0000
1.142 km
极远距离
1.624173E-5 中风险 0.59
CDM_260904-071600-346206-862023
2026-09-04T
07:16:46+0000
1.874 km
极远距离
2.730661E-6 低风险 0.44
CDM_260905-143206-764806-862021
2026-09-05T
14:32:53+0000
2.841 km
极远距离
1.447761E-6 低风险 0.38